Regional Weather Roundup
Issued by NWS Columbia, SC

Home | Current Version | Previous Version | Text Only | Print | Product List | Glossary On
Versions: 1 2 3 4 5 6 7 8 9 10 11 12 13 14 15 16 17 18 19 20 21 22 23 24 25 26 27 28 29 30 31 32 33 34 35 36 37 38 39 40 41 42 43 44 45 46 47 48 49 50
000
ASUS42 KCAE 250010
RWRCAE
REGIONAL WEATHER ROUNDUP
NATIONAL WEATHER SERVICE COLUMBIA SC
700 PM EST TUE JAN 24 2017

NOTE: "FAIR" INDICATES FEW OR NO CLOUDS BELOW 12,000 FEET WITH NO
SIGNIFICANT WEATHER AND/OR OBSTRUCTIONS TO VISIBILITY.

NOT ALL STATIONS ARE QUALITY CONTROLLED BY THE NATIONAL
WEATHER SERVICE. USE DATA WITH CAUTION...ESPECIALLY
DEWPOINT OBSERVATIONS.

SCZ001>056-GAZ040-063>065-077-250100-
...UPSTATE SOUTH CAROLINA...

CITY           SKY/WX    TMP DP  RH WIND       PRES   REMARKS
ANDERSON       CLEAR     56  38  50 SW9       29.80R
6HR MIN TEMP:  55; 6HR MAX TEMP:  66;

LIBERTY        CLEAR     57  35  43 SW3       29.78R
6HR MIN TEMP:  57; 6HR MAX TEMP:  69;

SPARTANBURG    CLEAR     50  37  62 CALM      29.80R
CLEMSON        CLEAR     61  32  33 SW6       29.80R
6HR MIN TEMP:  61; 6HR MAX TEMP:  70;

GREENVILLE     CLEAR     60  36  40 S6        29.80R
6HR MIN TEMP:  60; 6HR MAX TEMP:  67;

GREENWOOD      CLEAR     54  39  57 SW9       29.83R
6HR MIN TEMP:  54; 6HR MAX TEMP:  65;

GREER          CLEAR     54  39  57 CALM      29.79R
6HR MIN TEMP:  54; 6HR MAX TEMP:  67;

ROCK HILL      CLEAR     55  37  50 W6        29.79R
6HR MIN TEMP:  55; 6HR MAX TEMP:  65;

CHESTER        CLEAR     50  36  57 CALM      29.81R
LAURENS        CLEAR     55  41  58 SW3       29.80R


...CENTRAL SOUTH CAROLINA...

CITY           SKY/WX    TMP DP  RH WIND       PRES   REMARKS
COLUMBIA APT   CLEAR     55  45  68 W6        29.81R
6HR MIN TEMP:  55; 6HR MAX TEMP:  68;

COLUMBIA OWENS CLEAR     60  42  51 W5        29.82R
6HR MIN TEMP:  60; 6HR MAX TEMP:  67;

MCENTIRE ANGB  CLEAR     57  42  55 W6        29.81R
6HR MIN TEMP:  57; 6HR MAX TEMP:  67;

ORANGEBURG     CLEAR     57  43  59 W6        29.82R
SUMTER SHAW    CLEAR     56  42  61 CALM      29.78R
6HR MIN TEMP:  55; 6HR MAX TEMP:  67;

NEWBERRY       CLEAR     54  43  66 SW5       29.83R
AIKEN          FAIR      52  41  66 SW8       29.85R
BARNWELL       FAIR      57  46  67 W3        29.83R
MANNING        FAIR      57  43  58 W3        29.80R
CAMDEN         FAIR      57  43  58 CALM      29.80R
LANCASTER      CLEAR     55  37  50 SW3       29.79R
WINNSBORO      CLEAR     55  43  62 SW6       29.80R


...EASTERN AND COASTAL SOUTH CAROLINA...

CITY           SKY/WX    TMP DP  RH WIND       PRES   REMARKS
N MYRTLE BCH   CLEAR     54  44  69 SW6       29.76R
6HR MIN TEMP:  54; 6HR MAX TEMP:  65;

CONWAY         FAIR      50  46  87 CALM      29.78R
MARION         FAIR      54  41  62 W6        29.78R
HARTSVILLE     FAIR      50  41  71 CALM      29.78R
FLORENCE       CLEAR     56  42  59 W6        29.78R
6HR MIN TEMP:  56; 6HR MAX TEMP:  67;

DARLINGTON     CLEAR     53  44  71 W6        29.79R
6HR MIN TEMP:  52; 6HR MAX TEMP:  66;

CHARLESTON APT CLEAR     58  44  60 W7        29.81R
6HR MIN TEMP:  58; 6HR MAX TEMP:  68;

MOUNT PLEASANT FAIR      59  46  63 SW5       29.81R
WALTERBORO     CLEAR     55  45  67 CALM      29.83R
BEAUFORT       CLEAR     55  46  71 SW3       29.84R
6HR MIN TEMP:  55; 6HR MAX TEMP:  68;



...EASTERN GEORGIA...

CITY           SKY/WX    TMP DP  RH WIND       PRES   REMARKS
AUGUSTA BUSH F CLEAR     58  41  53 W7        29.83R
6HR MIN TEMP:  58; 6HR MAX TEMP:  70;

AUGUSTA DANIEL CLEAR     61  38  42 VRB3      29.84R
6HR MIN TEMP:  61; 6HR MAX TEMP:  68;

THOMSON        CLEAR     56  45  66 CALM      29.88R
6HR MIN TEMP:  55; 6HR MAX TEMP:  67;

CLAXTON        FAIR     N/A N/A N/A SW3       29.87R
SYLVANIA       CLEAR    N/A N/A N/A CALM      29.86R
STATESBORO     CLEAR     60  47  62 W6        29.86R
6HR MIN TEMP:  59; 6HR MAX TEMP:  68;

SAVANNAH       CLEAR     58  44  60 W5        29.85R
6HR MIN TEMP:  57; 6HR MAX TEMP:  68;



...SOUTHERN NORTH CAROLINA...

CITY           SKY/WX    TMP DP  RH WIND       PRES   REMARKS
CHARLOTTE      CLEAR     54  38  54 W5        29.79R
6HR MIN TEMP:  53; 6HR MAX TEMP:  66;

MONROE         CLEAR     56  35  45 W5        29.77R
6HR MIN TEMP:  56; 6HR MAX TEMP:  65;

ROCKINGHAM     CLEAR     55  42  60 W5        29.77R
RUTHERFORDTON  CLEAR     53  31  42 NW3       29.81R
ASHEVILLE      CLEAR     43  35  73 N15       29.85R
6HR MIN TEMP:  43; 6HR MAX TEMP:  50;


$$



USA.gov is the U.S. government's official web portal to all federal, state and local government web resources and services.